SCP
0 0 0 0 0 0 0 0 0 1 1 1 2 1 1 1 1 1 1 1 1 1 1 1 2 1 2 2 2 2 1 1 1 1 1 1 1 1 2 1 1 1 1
0 0 0 0 0 0 0 0 0 1 1 1 1 1 1 1 1 1 1 1 1 2 2 1 1 1 1 1 1 1 1 1 1 1 1 1 0 1 1 1 1 1 2
0 0 0 0 0 0 0 0 0 0 1 1 2 1 1 2 2 2 2 3 2 2 2 2 2 2 2 1 2 2 2 1 1 2 1 1 0 0 1 1 0 1 2
0 0 0 0 0 0 0 0 0 0 1 1 2 2 1 1 2 3 4 4 3 2 2 2 1 1 1 1 1 1 1 1 1 1 2 2 1 1 0 0 1 1 1
0 0 0 0 0 0 0 0 0 1 1 2 2 2 2 3 3 3 2 1 1 1 1 1 1 1 0 1 1 1 1 1 1 1 1 1 2 2 3 1 1 0 0
0 0 0 0 0 0 0 0 1 1 1 2 2 3 3 3 2 1 1 1 1 1 1 0 1 0 0 0 0 0 0 0 1 0 0 0 0 1 1 2 1 1 1
0 0 0 0 0 0 0 0 1 1 1 1 1 2 2 2 1 1 1 0 0 0 1 0 0 0 0 0 0 0 0 0 0 0 0 0 0 0 0 1 1 1 1
0 0 0 0 0 0 0 0 0 0 0 0 0 0 1 0 0 1 0 0 0 0 0 1 0 0 0 0 0 0 0 0 0 0 0 0 0 0 0 0 0 0 0
0 0 0 0 0 0 0 0 0 0 0 0 0 0 0 0 0 1 1 0 0 0 0 0 0 0 0 0 0 0 0 0 0 0 0 0 0 0 0 0 0 0 0
0 0 0 0 0 0 0 0 0 0 0 0 0 0 0 0 0 0 0 0 0 0 0 0 0 0 0 0 1 1 1 0 0 0 0 0 0 0 0 0 0 0 0
0 0 0 0 0 0 0 0 0 0 0 0 0 0 0 0 0 0 0 0 0 0 0 0 0 0 1 1 1 1 0 0 1 1 0 0 0 0 0 0 0 0 0
0 0 0 0 0 0 0 0 0 0 0 0 0 0 0 0 0 0 0 0 0 0 0 0 0 0 0 0 1 0 0 0 0 0 0 0 0 1 0 0 0 0 0
0 0 0 0 0 0 0 0 0 0 0 0 0 0 0 0 0 0 0 0 0 0 0 0 0 0 0 0 0 0 0 1 1 1 1 0 0 1 0 1 0 0 0
0 0 0 0 0 0 0 0 0 0 0 0 0 0 0 0 0 0 0 0 0 0 0 0 0 0 0 0 0 0 0 1 1 1 1 1 1 1 1 1 1 0 0
0 0 0 0 0 0 0 0 0 0 0 0 0 0 0 0 0 0 0 0 0 0 0 0 0 0 0 0 0 0 0 0 0 1 1 1 1 0 0 0 0 1 0
0 0 0 0 0 0 0 0 0 0 0 0 0 0 0 0 0 0 0 0 0 0 0 0 0 0 0 0 0 0 0 0 0 0 0 0 0 0 0 0 0 0 0
0 0 0 0 0 0 0 0 0 0 0 0 0 0 0 0 0 0 0 0 0 0 0 0 0 0 0 0 0 0 0 0 0 0 0 0 0 0 0 0 0 0 0
0 0 0 0 0 0 0 0 0 0 0 0 0 0 0 0 0 0 0 0 0 0 0 0 0 0 0 0 0 0 0 0 0 0 0 0 0 0 0 0 0 0 0
0 0 0 0 0 0 0 0 0 0 0 0 0 0 0 0 0 0 0 0 0 0 0 0 0 0 0 0 0 0 0 0 0 0 0 0 0 0 0 0 0 0 0
0 0 0 0 0 0 0 0 0 0 0 0 0 0 0 0 0 0 0 0 0 0 0 0 0 0 0 0 0 0 0 0 0 0 0 0 0 0 0 0 0 0 0
0 0 0 0 0 0 0 0 0 0 -0 0 0 0 0 0 0 0 0 0 0 0 0 0 0 0 0 0 0 0 0 0 0 0 0 0 0 0 0 0 0 0 0
0 0 -0 0 0 0 0 0 -0 -0 0 0 0 0 0 0 0 0 0 0 0 0 0 0 0 0 0 0 0 0 0 0 0 0 0 0 0 0 0 0 0 0 0
-0 0 0 0 0 0 -0 -0 -0 0 -0 -0 -0 0 0 0 0 0 0 0 0 0 0 0 0 0 0 0 0 0 0 0 0 0 0 0 0 0 0 0 0 0 0
0 0 -0 -0 -0 -0 -0 -0 -0 -0 -0 -0 -0 0 0 0 0 0 0 0 0 0 0 0 0 0 0 0 0 0 0 0 0 0 0 0 0 0 0 0 0 0 0
-0 -0 -0 0 0 -0 -0 -0 -0 -0 -0 0 0 0 0 0 0 0 0 0 0 0 0 0 0 0 0 0 0 0 0 0 0 0 0 0 0 0 0 0 0 0 0
-0 -0 0 0 -0 -0 -0 -0 -0 -0 0 0 0 0 0 0 0 0 0 0 0 0 0 0 0 0 0 0 0 -0 0 0 0 0 0 0 0 0 0 -0 -0 0 0
Wind_Speed_500mb
13 13 21 26 34 42 49 53 55 51 48 42 35 37 42 41 42 39 39 39 38 37 37 30 28 28 29 29 29 27 28 29 30 34 40 44 46 45 44 43 40 41 49
9 9 7 6 19 28 34 46 58 54 55 41 37 31 32 35 36 35 36 44 43 41 41 36 29 28 27 29 28 31 27 30 28 36 35 43 45 44 40 44 49 51 40
15 16 15 8 10 12 15 21 37 49 48 45 38 38 31 33 34 33 31 39 37 40 37 32 27 26 25 24 26 30 34 30 30 33 32 33 43 44 40 43 43 49 53
17 19 19 15 9 12 17 21 31 40 46 52 38 41 31 31 31 31 31 32 34 41 37 29 26 27 22 24 23 23 23 29 31 32 37 41 47 51 58 50 45 42 45
20 22 23 23 21 14 13 19 29 35 35 42 39 35 34 33 32 27 33 31 37 33 24 23 25 25 19 23 27 28 27 28 34 35 38 42 48 53 51 57 58 55 53
19 24 26 26 26 24 21 11 4 7 12 17 20 26 29 29 26 25 20 20 20 24 24 21 22 26 26 29 28 29 32 34 37 37 41 43 45 50 53 53 56 60 58
20 22 24 28 32 33 30 29 26 24 21 19 18 14 16 17 20 19 16 17 19 20 23 22 28 26 29 29 27 26 25 28 31 34 38 42 47 48 53 54 60 63 63
15 18 21 22 25 30 32 31 28 26 22 19 17 14 13 6 6 9 13 14 19 23 26 31 32 35 34 34 35 31 32 30 30 32 38 38 41 42 47 54 57 62 63
8 8 9 10 11 14 16 15 15 13 10 7 4 2 4 7 11 18 21 23 29 30 33 36 38 41 41 41 43 40 41 41 40 36 36 35 37 39 43 47 50 55 56
1 1 3 2 1 4 4 4 8 6 9 11 12 14 19 24 28 33 38 41 43 44 48 47 44 45 46 47 47 51 50 50 48 43 42 41 40 43 44 45 48 51 58
10 9 9 5 2 3 4 8 10 11 12 12 16 20 25 29 35 39 42 44 48 51 52 48 48 51 54 56 60 64 63 61 61 57 53 52 52 50 49 50 50 53 56
10 9 5 2 3 5 6 11 13 15 17 19 22 27 32 34 37 42 46 49 53 55 55 53 55 57 59 63 66 66 69 70 74 72 67 63 58 57 53 52 52 54 56
8 4 2 3 4 8 12 15 18 21 23 26 28 30 35 39 44 50 54 58 59 59 58 55 58 60 62 64 67 70 75 78 81 81 79 77 70 68 66 63 62 59 57
6 2 2 5 10 14 19 23 25 27 29 32 35 38 41 46 52 56 58 57 57 58 59 61 65 67 70 74 75 77 80 83 86 87 87 84 80 76 72 68 65 62 61
8 6 10 15 20 24 27 29 32 35 36 40 42 45 46 48 51 52 54 55 58 61 61 63 65 69 71 76 77 80 87 89 89 88 89 88 88 87 83 78 73 64 61
12 14 18 22 27 30 34 36 38 41 43 45 48 49 51 53 56 57 58 60 61 61 61 63 66 68 70 74 79 84 80 86 86 86 86 90 91 88 87 89 89 80 68
19 21 24 29 33 37 39 43 46 48 49 51 53 54 55 58 60 60 62 63 62 61 64 66 68 74 76 79 82 87 88 84 86 87 87 89 87 87 86 84 82 78 77
23 28 34 38 40 44 48 50 51 52 54 56 57 57 58 62 63 64 64 63 63 66 66 74 72 77 75 78 77 74 75 79 79 79 76 80 74 86 73 76 79 64 56
30 35 39 43 49 52 53 54 57 55 57 59 60 61 60 65 64 63 62 65 66 71 89 84 70 80 89 85 87 77 85 90 91 76 82 92 87 74 77 80 56 58 63
39 42 46 51 53 55 55 56 59 60 62 62 63 61 61 62 61 60 67 86 78 78 73 76 83 72 73 74 74 73 63 73 77 85 65 64 86 67 71 77 76 78 80
42 46 50 53 55 55 56 61 62 62 63 62 63 65 62 58 65 84 79 71 71 72 73 73 71 69 71 71 66 57 55 58 60 58 55 54 52 79 67 64 59 66 63
48 51 54 55 55 55 57 61 64 62 62 64 64 61 62 83 78 74 70 67 66 66 72 71 70 67 63 51 49 57 63 60 57 53 50 43 42 50 50 52 62 65 66
54 54 54 57 59 56 57 62 63 62 62 61 62 80 80 75 66 65 63 63 62 65 67 66 69 66 46 43 41 47 43 43 48 52 53 41 41 35 43 56 54 54 58
55 54 56 59 62 57 57 58 58 58 61 74 79 77 73 69 63 60 57 58 60 61 62 64 65 62 53 38 33 37 31 26 32 40 47 49 50 46 46 45 51 48 51
53 54 58 59 61 59 56 52 53 65 72 72 72 68 64 62 60 57 56 56 55 55 55 56 58 61 61 44 32 36 25 9 20 29 33 34 40 45 43 41 49 42 48
55 55 55 55 57 55 55 52 71 62 63 66 65 61 59 57 58 58 56 53 55 48 53 52 48 52 56 56 52 42 37 26 15 25 26 33 37 41 41 40 43 51 50
Wind_Direction_500mb
317 283 249 247 241 237 236 241 238 237 240 244 228 224 228 225 224 224 227 233 233 229 235 234 242 245 244 245 246 251 261 261 265 271 271 274 273 269 261 266 262 258 260
351 350 331 265 240 237 237 244 236 231 236 238 233 229 233 225 221 219 221 229 232 233 233 235 237 245 250 260 258 260 257 266 264 263 276 279 279 271 270 268 264 262 253
1 2 7 343 265 254 235 232 229 230 236 231 238 234 229 212 215 213 220 228 232 237 240 243 240 242 253 254 260 264 267 262 264 261 258 280 277 288 271 280 275 264 265
21 24 22 14 337 272 253 243 236 236 238 241 226 230 220 226 222 211 211 216 234 238 241 237 241 248 241 248 261 266 259 267 270 269 266 268 273 278 286 277 274 274 274
39 33 32 27 21 1 297 261 246 245 234 239 224 231 226 223 214 201 218 212 228 230 224 232 240 245 248 257 257 261 267 263 272 271 276 274 276 276 272 280 278 276 269
59 50 43 43 41 41 41 38 8 279 262 249 233 225 226 218 204 199 191 189 197 211 225 236 248 262 264 264 266 266 271 270 261 265 268 271 273 277 279 280 278 278 280
72 63 58 53 52 54 60 62 71 78 87 100 109 127 149 159 164 155 177 193 216 219 240 253 255 254 262 251 258 261 267 269 269 266 271 273 272 275 279 279 282 281 279
67 59 60 65 67 68 69 70 72 76 77 84 96 107 118 151 154 186 199 222 236 251 251 261 263 270 257 260 262 263 264 259 267 273 273 273 276 278 277 276 281 283 281
65 55 58 61 65 67 72 69 71 70 78 75 43 328 277 264 256 261 265 261 257 256 255 250 248 251 250 252 259 263 257 264 268 264 271 272 277 279 279 280 278 276 279
27 333 9 29 69 57 35 7 33 346 298 289 277 275 263 263 263 261 259 258 257 259 256 247 250 249 250 250 249 257 263 258 259 262 261 262 272 276 279 280 280 279 279
317 320 337 344 44 49 8 14 6 357 343 325 304 292 287 290 286 281 277 274 272 271 266 262 260 257 257 255 253 252 253 254 257 255 254 256 264 271 273 275 277 278 278
331 333 334 15 16 12 359 346 348 337 332 325 317 303 295 291 287 285 283 281 279 276 273 270 265 262 259 256 254 255 255 255 254 254 254 256 261 263 270 273 273 275 274
328 336 16 57 20 350 340 330 330 322 320 317 310 305 300 297 293 290 286 282 278 275 272 267 265 264 262 261 259 258 258 257 256 254 253 253 254 254 259 261 267 272 276
270 290 311 337 334 328 323 321 317 313 311 307 303 298 294 291 289 287 284 281 278 275 272 270 269 267 265 263 262 260 259 257 257 256 252 252 251 252 253 256 261 269 272
249 272 298 310 312 313 314 314 311 311 308 303 300 297 295 291 289 286 283 281 280 278 276 274 271 268 266 264 264 261 259 257 256 255 255 254 251 252 252 253 257 262 266
269 283 294 304 307 308 310 309 311 308 306 302 299 296 294 292 289 287 286 284 282 280 277 274 272 271 268 265 260 258 258 256 256 257 256 254 254 253 252 249 249 250 254
289 289 297 302 305 307 307 306 304 304 302 300 298 296 295 292 291 289 286 284 283 281 276 273 272 270 267 263 261 259 259 260 257 257 257 255 253 252 249 249 250 249 252
301 303 304 305 305 306 307 304 303 303 302 300 299 297 296 293 291 289 287 285 281 279 280 278 277 275 274 270 269 266 264 261 259 254 254 252 252 246 245 245 244 241 249
306 307 306 305 306 307 306 303 303 304 302 302 299 298 296 293 292 288 285 285 283 277 282 285 279 275 276 271 274 266 262 262 264 262 258 252 245 248 242 235 245 249 252
304 305 304 304 305 305 304 303 303 302 302 301 298 296 295 292 289 288 286 293 290 290 289 284 286 285 281 281 276 273 266 259 257 262 266 259 238 239 238 238 244 252 255
301 302 301 301 301 302 302 300 301 301 301 299 296 296 293 292 289 297 298 296 294 294 291 288 287 282 283 287 282 275 266 261 264 266 264 258 250 233 241 242 240 246 253
302 302 301 300 300 301 302 300 300 302 299 297 298 297 293 299 301 300 298 296 294 290 294 294 295 296 295 286 281 269 265 264 260 253 250 246 255 230 231 241 247 249 244
302 302 302 301 301 303 303 301 301 301 303 301 299 299 305 305 306 304 301 299 296 294 294 295 296 296 289 283 282 287 273 261 262 249 238 236 246 227 242 254 243 241 239
303 303 303 302 302 304 302 301 304 306 303 301 306 308 311 313 310 306 303 300 300 299 297 296 293 294 289 282 278 281 273 269 251 236 242 241 230 240 252 250 240 235 221
303 303 303 303 304 304 304 306 309 306 308 307 309 313 315 315 315 313 310 307 305 303 300 296 291 287 284 276 266 266 243 267 218 230 229 233 238 243 239 235 235 231 227
305 305 304 303 305 307 306 305 312 313 309 309 314 317 317 320 320 321 317 315 318 317 314 309 297 288 280 274 263 248 248 238 250 217 233 240 238 227 230 240 240 231 234
Wind_Speed_850mb
13 13 21 26 34 42 49 53 55 51 48 42 35 37 42 41 42 39 39 39 38 37 37 30 28 28 29 29 29 27 28 29 30 34 40 44 46 45 44 43 40 41 49
9 9 7 6 19 28 34 46 58 54 55 41 37 31 32 35 36 35 36 44 43 41 41 36 29 28 27 29 28 31 27 30 28 36 35 43 45 44 40 44 49 51 40
15 16 15 8 10 12 15 21 37 49 48 45 38 38 31 33 34 33 31 39 37 40 37 32 27 26 25 24 26 30 34 30 30 33 32 33 43 44 40 43 43 49 53
17 19 19 15 9 12 17 21 31 40 46 52 38 41 31 31 31 31 31 32 34 41 37 29 26 27 22 24 23 23 23 29 31 32 37 41 47 51 58 50 45 42 45
20 22 23 23 21 14 13 19 29 35 35 42 39 35 34 33 32 27 33 31 37 33 24 23 25 25 19 23 27 28 27 28 34 35 38 42 48 53 51 57 58 55 53
19 24 26 26 26 24 21 11 4 7 12 17 20 26 29 29 26 25 20 20 20 24 24 21 22 26 26 29 28 29 32 34 37 37 41 43 45 50 53 53 56 60 58
20 22 24 28 32 33 30 29 26 24 21 19 18 14 16 17 20 19 16 17 19 20 23 22 28 26 29 29 27 26 25 28 31 34 38 42 47 48 53 54 60 63 63
15 18 21 22 25 30 32 31 28 26 22 19 17 14 13 6 6 9 13 14 19 23 26 31 32 35 34 34 35 31 32 30 30 32 38 38 41 42 47 54 57 62 63
8 8 9 10 11 14 16 15 15 13 10 7 4 2 4 7 11 18 21 23 29 30 33 36 38 41 41 41 43 40 41 41 40 36 36 35 37 39 43 47 50 55 56
1 1 3 2 1 4 4 4 8 6 9 11 12 14 19 24 28 33 38 41 43 44 48 47 44 45 46 47 47 51 50 50 48 43 42 41 40 43 44 45 48 51 58
10 9 9 5 2 3 4 8 10 11 12 12 16 20 25 29 35 39 42 44 48 51 52 48 48 51 54 56 60 64 63 61 61 57 53 52 52 50 49 50 50 53 56
10 9 5 2 3 5 6 11 13 15 17 19 22 27 32 34 37 42 46 49 53 55 55 53 55 57 59 63 66 66 69 70 74 72 67 63 58 57 53 52 52 54 56
8 4 2 3 4 8 12 15 18 21 23 26 28 30 35 39 44 50 54 58 59 59 58 55 58 60 62 64 67 70 75 78 81 81 79 77 70 68 66 63 62 59 57
6 2 2 5 10 14 19 23 25 27 29 32 35 38 41 46 52 56 58 57 57 58 59 61 65 67 70 74 75 77 80 83 86 87 87 84 80 76 72 68 65 62 61
8 6 10 15 20 24 27 29 32 35 36 40 42 45 46 48 51 52 54 55 58 61 61 63 65 69 71 76 77 80 87 89 89 88 89 88 88 87 83 78 73 64 61
12 14 18 22 27 30 34 36 38 41 43 45 48 49 51 53 56 57 58 60 61 61 61 63 66 68 70 74 79 84 80 86 86 86 86 90 91 88 87 89 89 80 68
19 21 24 29 33 37 39 43 46 48 49 51 53 54 55 58 60 60 62 63 62 61 64 66 68 74 76 79 82 87 88 84 86 87 87 89 87 87 86 84 82 78 77
23 28 34 38 40 44 48 50 51 52 54 56 57 57 58 62 63 64 64 63 63 66 66 74 72 77 75 78 77 74 75 79 79 79 76 80 74 86 73 76 79 64 56
30 35 39 43 49 52 53 54 57 55 57 59 60 61 60 65 64 63 62 65 66 71 89 84 70 80 89 85 87 77 85 90 91 76 82 92 87 74 77 80 56 58 63
39 42 46 51 53 55 55 56 59 60 62 62 63 61 61 62 61 60 67 86 78 78 73 76 83 72 73 74 74 73 63 73 77 85 65 64 86 67 71 77 76 78 80
42 46 50 53 55 55 56 61 62 62 63 62 63 65 62 58 65 84 79 71 71 72 73 73 71 69 71 71 66 57 55 58 60 58 55 54 52 79 67 64 59 66 63
48 51 54 55 55 55 57 61 64 62 62 64 64 61 62 83 78 74 70 67 66 66 72 71 70 67 63 51 49 57 63 60 57 53 50 43 42 50 50 52 62 65 66
54 54 54 57 59 56 57 62 63 62 62 61 62 80 80 75 66 65 63 63 62 65 67 66 69 66 46 43 41 47 43 43 48 52 53 41 41 35 43 56 54 54 58
55 54 56 59 62 57 57 58 58 58 61 74 79 77 73 69 63 60 57 58 60 61 62 64 65 62 53 38 33 37 31 26 32 40 47 49 50 46 46 45 51 48 51
53 54 58 59 61 59 56 52 53 65 72 72 72 68 64 62 60 57 56 56 55 55 55 56 58 61 61 44 32 36 25 9 20 29 33 34 40 45 43 41 49 42 48
55 55 55 55 57 55 55 52 71 62 63 66 65 61 59 57 58 58 56 53 55 48 53 52 48 52 56 56 52 42 37 26 15 25 26 33 37 41 41 40 43 51 50
Wind_Direction_850mb
317 283 249 247 241 237 236 241 238 237 240 244 228 224 228 225 224 224 227 233 233 229 235 234 242 245 244 245 246 251 261 261 265 271 271 274 273 269 261 266 262 258 260
351 350 331 265 240 237 237 244 236 231 236 238 233 229 233 225 221 219 221 229 232 233 233 235 237 245 250 260 258 260 257 266 264 263 276 279 279 271 270 268 264 262 253
1 2 7 343 265 254 235 232 229 230 236 231 238 234 229 212 215 213 220 228 232 237 240 243 240 242 253 254 260 264 267 262 264 261 258 280 277 288 271 280 275 264 265
21 24 22 14 337 272 253 243 236 236 238 241 226 230 220 226 222 211 211 216 234 238 241 237 241 248 241 248 261 266 259 267 270 269 266 268 273 278 286 277 274 274 274
39 33 32 27 21 1 297 261 246 245 234 239 224 231 226 223 214 201 218 212 228 230 224 232 240 245 248 257 257 261 267 263 272 271 276 274 276 276 272 280 278 276 269
59 50 43 43 41 41 41 38 8 279 262 249 233 225 226 218 204 199 191 189 197 211 225 236 248 262 264 264 266 266 271 270 261 265 268 271 273 277 279 280 278 278 280
72 63 58 53 52 54 60 62 71 78 87 100 109 127 149 159 164 155 177 193 216 219 240 253 255 254 262 251 258 261 267 269 269 266 271 273 272 275 279 279 282 281 279
67 59 60 65 67 68 69 70 72 76 77 84 96 107 118 151 154 186 199 222 236 251 251 261 263 270 257 260 262 263 264 259 267 273 273 273 276 278 277 276 281 283 281
65 55 58 61 65 67 72 69 71 70 78 75 43 328 277 264 256 261 265 261 257 256 255 250 248 251 250 252 259 263 257 264 268 264 271 272 277 279 279 280 278 276 279
27 333 9 29 69 57 35 7 33 346 298 289 277 275 263 263 263 261 259 258 257 259 256 247 250 249 250 250 249 257 263 258 259 262 261 262 272 276 279 280 280 279 279
317 320 337 344 44 49 8 14 6 357 343 325 304 292 287 290 286 281 277 274 272 271 266 262 260 257 257 255 253 252 253 254 257 255 254 256 264 271 273 275 277 278 278
331 333 334 15 16 12 359 346 348 337 332 325 317 303 295 291 287 285 283 281 279 276 273 270 265 262 259 256 254 255 255 255 254 254 254 256 261 263 270 273 273 275 274
328 336 16 57 20 350 340 330 330 322 320 317 310 305 300 297 293 290 286 282 278 275 272 267 265 264 262 261 259 258 258 257 256 254 253 253 254 254 259 261 267 272 276
270 290 311 337 334 328 323 321 317 313 311 307 303 298 294 291 289 287 284 281 278 275 272 270 269 267 265 263 262 260 259 257 257 256 252 252 251 252 253 256 261 269 272
249 272 298 310 312 313 314 314 311 311 308 303 300 297 295 291 289 286 283 281 280 278 276 274 271 268 266 264 264 261 259 257 256 255 255 254 251 252 252 253 257 262 266
269 283 294 304 307 308 310 309 311 308 306 302 299 296 294 292 289 287 286 284 282 280 277 274 272 271 268 265 260 258 258 256 256 257 256 254 254 253 252 249 249 250 254
289 289 297 302 305 307 307 306 304 304 302 300 298 296 295 292 291 289 286 284 283 281 276 273 272 270 267 263 261 259 259 260 257 257 257 255 253 252 249 249 250 249 252
301 303 304 305 305 306 307 304 303 303 302 300 299 297 296 293 291 289 287 285 281 279 280 278 277 275 274 270 269 266 264 261 259 254 254 252 252 246 245 245 244 241 249
306 307 306 305 306 307 306 303 303 304 302 302 299 298 296 293 292 288 285 285 283 277 282 285 279 275 276 271 274 266 262 262 264 262 258 252 245 248 242 235 245 249 252
304 305 304 304 305 305 304 303 303 302 302 301 298 296 295 292 289 288 286 293 290 290 289 284 286 285 281 281 276 273 266 259 257 262 266 259 238 239 238 238 244 252 255
301 302 301 301 301 302 302 300 301 301 301 299 296 296 293 292 289 297 298 296 294 294 291 288 287 282 283 287 282 275 266 261 264 266 264 258 250 233 241 242 240 246 253
302 302 301 300 300 301 302 300 300 302 299 297 298 297 293 299 301 300 298 296 294 290 294 294 295 296 295 286 281 269 265 264 260 253 250 246 255 230 231 241 247 249 244
302 302 302 301 301 303 303 301 301 301 303 301 299 299 305 305 306 304 301 299 296 294 294 295 296 296 289 283 282 287 273 261 262 249 238 236 246 227 242 254 243 241 239
303 303 303 302 302 304 302 301 304 306 303 301 306 308 311 313 310 306 303 300 300 299 297 296 293 294 289 282 278 281 273 269 251 236 242 241 230 240 252 250 240 235 221
303 303 303 303 304 304 304 306 309 306 308 307 309 313 315 315 315 313 310 307 305 303 300 296 291 287 284 276 266 266 243 267 218 230 229 233 238 243 239 235 235 231 227
305 305 304 303 305 307 306 305 312 313 309 309 314 317 317 320 320 321 317 315 318 317 314 309 297 288 280 274 263 248 248 238 250 217 233 240 238 227 230 240 240 231 234